User: anonymous   Login
Location: Home
(42.5358°N, 72.7383°W)
Time: 22:11:00
(UTC-04:00)
Language:

IRIDIUM 152 - Orbit

View from above orbital plane
View from above orbital plane
View from above satellite
View from above satellite

Ground track
Ground track

The orbit data is extracted from the following two-line orbital elements,

1 43479U 18047D   22181.47482486  .00000092  00000-0  25791-4 0  9993
2 43479  86.3969 333.3483 0001920  95.4922 264.6493 14.34212861214980
Epoch (UTC): 30 June 2022 11:23:44
Eccentricity: 0.0001920
inclination: 86.3969°
perigee height: 776 km
apogee height: 779 km
right ascension of ascending node: 333.3483°
argument of perigee: 95.4922°
revolutions per day: 14.34212861
mean anomaly at epoch: 264.6493°
orbit number at epoch: 21498

The dashed part of the orbit path shows where the satellite is in the earth's shadow,  

DLR